EW6780 Weather Reports


Display with metric or nautical units.
time (UTC)temp
F
wind
direction
speed
MPH
gust
MPH
rain 1hr
in
rain 24hr
in
rain mn
in
humidity
%
barometer
mb
20260505125010 67 164 1.0 7.0 0.00 0.01 0.00 59 1010.6
20260505124504 67 113 1.0 5.0 0.00 0.01 0.00 61 1010.7
20260505124010 67 289 5.0 5.0 0.00 0.01 0.00 60 1010.6
20260505123510 67 296 0.0 5.0 0.00 0.01 0.00 61 1010.6
20260505123007 67 247 0.0 4.0 0.00 0.01 0.00 61 1010.5
20260505122507 66 289 1.0 7.0 0.00 0.01 0.00 62 1010.6
20260505122007 66 125 0.0 9.0 0.00 0.01 0.00 63 1010.7
20260505121505 65 106 7.0 9.0 0.00 0.01 0.00 63 1010.8
20260505121004 65 139 4.0 5.0 0.00 0.01 0.00 65 1010.8
20260505120504 64 175 2.0 4.0 0.00 0.01 0.00 67 1010.7
20260505120005 64 257 1.0 6.0 0.00 0.01 0.00 67 1010.7
20260505115508 63 300 2.0 5.0 0.00 0.01 0.00 69 1010.7
20260505115004 62 208 0.0 4.0 0.00 0.01 0.00 70 1010.8
20260505114507 62 262 1.0 3.0 0.00 0.01 0.00 71 1010.7
20260505114004 61 116 0.0 5.0 0.00 0.01 0.00 72 1010.8
20260505113510 61 241 3.0 5.0 0.00 0.01 0.00 73 1010.9
20260505113010 60 228 0.0 0.0 0.00 0.01 0.00 74 1010.9
20260505112514 60 294 0.0 3.0 0.00 0.01 0.00 75 1010.9
20260505112004 59 292 0.0 0.0 0.00 0.01 0.00 75 1010.8
20260505111504 59 301 0.0 3.0 0.00 0.01 0.00 76 1010.9
20260505111010 59 304 0.0 2.0 0.00 0.01 0.00 77 1010.9
20260505110507 58 308 0.0 0.0 0.00 0.01 0.00 77 1010.7
20260505102004 55 304 0.0 0.0 0.00 0.01 0.00 83 1010.6
20260505101507 55 304 0.0 0.0 0.00 0.01 0.00 83 1010.6
20260505101007 55 304 0.0 0.0 0.00 0.01 0.00 82 1010.5
20260505100508 55 301 0.0 0.0 0.00 0.01 0.00 82 1010.6
20260505100008 55 301 0.0 0.0 0.00 0.01 0.00 81 1010.6
20260505095507 55 301 0.0 0.0 0.00 0.01 0.00 81 1010.5
20260505095004 56 301 0.0 0.0 0.00 0.01 0.00 80 1010.0
20260505094510 56 301 0.0 0.0 0.00 0.01 0.00 80 1010.0
20260505094007 56 301 0.0 0.0 0.00 0.01 0.00 80 1009.9
20260505093504 56 301 0.0 0.0 0.00 0.01 0.00 81 1009.9
20260505093004 56 301 0.0 0.0 0.00 0.01 0.00 81 1009.6
20260505092504 56 301 0.0 0.0 0.00 0.01 0.00 81 1009.7
20260505092013 56 301 0.0 0.0 0.00 0.01 0.00 82 1009.8
20260505091507 55 301 0.0 0.0 0.00 0.01 0.00 82 1009.7
20260505091007 55 301 0.0 0.0 0.00 0.01 0.00 83 1009.8
20260505090504 54 301 0.0 2.0 0.00 0.01 0.00 83 1009.8
20260505090004 54 233 0.0 0.0 0.00 0.01 0.00 83 1009.9
20260505085507 54 233 0.0 0.0 0.00 0.01 0.00 82 1009.8
20260505085004 54 233 0.0 0.0 0.00 0.01 0.00 82 1009.9
20260505084507 54 233 0.0 0.0 0.00 0.01 0.00 82 1009.9
20260505084004 54 233 0.0 0.0 0.00 0.01 0.00 82 1009.9
20260505083504 54 233 0.0 0.0 0.00 0.01 0.00 82 1010.0
20260505083007 54 233 0.0 0.0 0.00 0.01 0.00 82 1009.9
20260505082504 54 233 0.0 0.0 0.00 0.01 0.00 81 1009.9
20260505082004 54 233 0.0 0.0 0.00 0.01 0.00 81 1009.8
20260505081508 54 233 0.0 0.0 0.00 0.01 0.00 81 1009.8
20260505081005 54 233 0.0 0.0 0.00 0.01 0.00 81 1009.8
20260505080513 54 233 0.0 0.0 0.00 0.01 0.00 81 1009.8
20260505080004 54 233 0.0 0.0 0.00 0.01 0.00 81 1009.8
20260505075505 53 233 0.0 0.0 0.00 0.01 0.00 81 1009.9
20260505075008 53 233 0.0 0.0 0.00 0.01 0.00 81 1009.9
20260505074507 53 233 0.0 0.0 0.00 0.01 0.00 80 1010.0
20260505074004 54 233 0.0 0.0 0.00 0.01 0.00 80 1009.9
20260505073504 54 233 0.0 0.0 0.00 0.01 0.00 79 1009.8
20260505073004 54 233 0.0 0.0 0.00 0.01 0.00 79 1009.8
20260505072504 54 233 0.0 0.0 0.00 0.01 0.00 79 1009.8
20260505072004 54 233 0.0 0.0 0.00 0.01 0.00 79 1009.9
20260505071504 54 233 0.0 0.0 0.00 0.01 0.00 78 1009.9
20260505071004 54 233 0.0 0.0 0.00 0.01 0.00 77 1009.9
20260505070505 54 233 0.0 0.0 0.00 0.01 0.00 77 1009.8
20260505070005 55 233 0.0 0.0 0.00 0.01 0.00 77 1009.8
20260505065507 55 233 0.0 0.0 0.00 0.01 0.00 76 1009.8
20260505065007 55 233 0.0 0.0 0.00 0.01 0.00 76 1009.8
20260505064507 55 233 0.0 0.0 0.00 0.01 0.00 75 1009.8
20260505064004 55 233 0.0 0.0 0.00 0.01 0.00 75 1009.9
20260505063504 55 233 0.0 0.0 0.00 0.01 0.00 74 1009.8
20260505063004 56 233 0.0 0.0 0.00 0.01 0.00 73 1009.8
20260505062507 56 233 0.0 0.0 0.00 0.01 0.00 73 1009.9
20260505062004 56 233 0.0 0.0 0.00 0.01 0.00 72 1010.0
20260505061510 56 233 0.0 0.0 0.00 0.01 0.00 71 1010.0
20260505061010 57 233 0.0 0.0 0.00 0.01 0.00 71 1010.0
20260505060504 57 233 0.0 0.0 0.00 0.01 0.00 71 1010.0
20260505060007 57 233 0.0 0.0 0.00 0.01 0.00 70 1010.0
20260505055504 57 233 0.0 0.0 0.00 0.01 0.00 70 1010.0
20260505055004 57 233 0.0 0.0 0.00 0.01 0.00 70 1010.0
20260505054505 58 233 0.0 0.0 0.00 0.01 0.00 69 1010.0
20260505054004 58 233 0.0 0.0 0.00 0.01 0.00 69 1010.0
20260505053507 58 233 0.0 0.0 0.00 0.01 0.00 69 1009.9
20260505053008 58 233 0.0 0.0 0.00 0.01 0.00 69 1010.0
20260505052504 58 233 0.0 0.0 0.00 0.01 0.00 68 1010.1
20260505052010 58 233 0.0 0.0 0.00 0.01 0.00 68 1010.1
20260505051507 58 233 0.0 0.0 0.00 0.01 0.00 67 1010.2
20260505051004 58 233 0.0 0.0 0.00 0.01 0.00 67 1010.2
20260505050507 59 234 0.0 0.0 0.00 0.01 0.00 66 1010.2
20260505041511 61 235 0.0 0.0 0.00 0.01 0.00 62 1010.4
20260505041007 61 179 0.0 0.0 0.00 0.01 0.00 62 1010.4
20260505040504 61 179 0.0 1.0 0.00 0.01 0.00 61 1010.4
20260505040005 61 158 0.0 0.0 0.00 0.01 0.00 61 1010.5
20260505035507 61 161 0.0 0.0 0.00 0.01 0.00 60 1010.4
20260505035005 61 133 0.0 0.0 0.00 0.01 0.00 60 1010.5
20260505034510 61 133 0.0 0.0 0.00 0.01 0.00 60 1010.5
20260505034005 61 133 0.0 0.0 0.00 0.01 0.00 60 1010.5
20260505033507 61 133 0.0 0.0 0.00 0.01 0.00 59 1010.5
20260505033004 61 129 0.0 0.0 0.00 0.01 0.00 59 1010.5
20260505032504 61 129 0.0 0.0 0.00 0.01 0.00 58 1010.6
20260505032007 62 129 0.0 0.0 0.00 0.01 0.00 58 1010.7
20260505031504 62 129 0.0 0.0 0.00 0.01 0.00 58 1010.7
20260505031004 62 129 0.0 1.0 0.00 0.01 0.00 57 1010.7
20260505030510 62 125 0.0 0.0 0.00 0.01 0.00 57 1010.8
20260505030010 62 125 0.0 0.0 0.00 0.01 0.00 56 1010.8
20260505025507 63 124 0.0 0.0 0.00 0.01 0.00 56 1010.7
20260505025004 63 124 0.0 0.0 0.00 0.01 0.00 56 1010.6
20260505024504 63 124 0.0 1.0 0.00 0.01 0.00 55 1010.8
20260505024007 63 136 0.0 0.0 0.00 0.01 0.00 55 1010.8
20260505023510 63 136 0.0 1.0 0.00 0.01 0.00 54 1010.8
20260505023007 64 148 0.0 1.0 0.00 0.01 0.00 54 1010.8
20260505022507 64 128 0.0 1.0 0.00 0.01 0.00 53 1010.8
20260505022005 64 127 0.0 3.0 0.00 0.01 0.00 53 1010.8
20260505021513 64 118 0.0 6.0 0.00 0.01 0.00 53 1010.9
20260505021004 64 129 0.0 6.0 0.00 0.01 0.00 52 1011.0
20260505020510 64 133 0.0 0.0 0.00 0.01 0.00 52 1010.8
20260505020004 65 133 0.0 2.0 0.00 0.01 0.00 51 1010.7
20260505015507 65 141 0.0 6.0 0.00 0.01 0.00 51 1010.7
20260505015004 65 129 1.0 1.0 0.00 0.01 0.00 50 1010.7
20260505014507 65 150 0.0 3.0 0.00 0.01 0.00 49 1010.7
20260505014010 66 121 0.0 6.0 0.00 0.01 0.00 47 1010.6
20260505013510 66 127 1.0 8.0 0.00 0.01 0.00 46 1010.6
20260505013004 66 98 0.0 2.0 0.00 0.01 0.00 44 1010.5
20260505012507 66 137 0.0 0.0 0.00 0.01 0.00 43 1010.5
20260505012004 66 137 0.0 0.0 0.00 0.01 0.00 43 1010.3
20260505011505 66 137 0.0 0.0 0.00 0.02 0.00 42 1010.2
20260505011004 67 137 0.0 0.0 0.00 0.02 0.00 42 1010.1
20260505010507 67 137 0.0 0.0 0.00 0.02 0.00 42 1010.1
20260505010008 67 136 0.0 0.0 0.00 0.02 0.00 41 1010.0
20260505005504 67 136 0.0 0.0 0.00 0.02 0.00 41 1009.9
20260505005007 67 136 0.0 0.0 0.00 0.02 0.00 41 1009.8
20260505004510 68 136 0.0 0.0 0.00 0.02 0.00 40 1009.8
20260505004004 68 136 0.0 0.0 0.00 0.02 0.00 40 1009.8
20260505003504 68 134 0.0 1.0 0.00 0.02 0.00 39 1009.8
20260505003004 68 161 0.0 1.0 0.00 0.02 0.00 39 1009.7
20260505002504 68 220 0.0 1.0 0.00 0.02 0.00 39 1009.6
20260505002007 69 179 1.0 2.0 0.00 0.02 0.00 39 1009.5
20260505001505 69 231 0.0 2.0 0.00 0.02 0.00 38 1009.5
20260505001004 69 123 0.0 2.0 0.00 0.02 0.00 38 1009.4
20260505000507 69 118 0.0 6.0 0.00 0.02 0.00 37 1009.3
20260505000005 70 183 0.0 4.0 0.00 0.02 0.00 37 1009.3
20260504235510 70 269 0.0 6.0 0.00 0.02 0.00 37 1009.2
20260504235004 70 161 0.0 2.0 0.00 0.02 0.00 37 1009.2
20260504234507 70 196 0.0 4.0 0.00 0.02 0.00 37 1009.1
20260504234011 71 303 1.0 4.0 0.00 0.02 0.00 36 1009.0
20260504233505 71 284 3.0 3.0 0.00 0.02 0.00 36 1008.9
20260504233004 71 270 0.0 3.0 0.00 0.02 0.00 35 1008.9
20260504232510 71 289 1.0 4.0 0.00 0.02 0.00 35 1008.9
20260504232004 71 164 0.0 2.0 0.00 0.02 0.00 36 1008.8
20260504231504 71 256 0.0 4.0 0.00 0.02 0.00 35 1008.7
20260504231004 71 199 0.0 3.0 0.00 0.02 0.00 35 1008.7
20260504230504 72 293 0.0 4.0 0.00 0.02 0.00 35 1008.6
20260504230005 72 302 1.0 2.0 0.00 0.02 0.00 35 1008.6
20260504225508 72 301 0.0 2.0 0.00 0.02 0.00 35 1008.6
20260504225010 72 175 0.0 6.0 0.00 0.02 0.00 35 1008.7
20260504224504 72 95 0.0 2.0 0.00 0.02 0.00 34 1008.6
20260504224007 72 303 2.0 6.0 0.00 0.02 0.00 34 1008.7
20260504223504 72 259 0.0 3.0 0.00 0.02 0.00 34 1008.7
20260504223004 73 127 1.0 6.0 0.00 0.02 0.00 33 1008.7
20260504222504 73 295 1.0 3.0 0.00 0.02 0.00 34 1008.7
20260504222008 73 142 0.0 3.0 0.00 0.02 0.00 34 1008.7
20260504221510 73 214 0.0 2.0 0.00 0.02 0.00 34 1008.8
20260504221004 73 129 0.0 6.0 0.00 0.02 0.00 33 1008.8
20260504220504 73 136 2.0 2.0 0.00 0.02 0.00 34 1008.8
20260504220007 73 204 0.0 6.0 0.00 0.02 0.00 34 1008.9
20260504215504 73 308 2.0 4.0 0.00 0.02 0.00 34 1008.9
20260504215004 73 252 1.0 7.0 0.00 0.02 0.00 33 1009.0
20260504214507 73 314 0.0 4.0 0.00 0.02 0.00 33 1009.0
20260504214004 73 290 0.0 6.0 0.00 0.02 0.00 34 1009.0
20260504213504 73 303 1.0 5.0 0.00 0.02 0.00 33 1009.0
20260504213004 73 288 3.0 4.0 0.00 0.02 0.00 33 1009.0
20260504212507 73 172 3.0 8.0 0.00 0.02 0.00 33 1009.1
20260504212010 73 261 1.0 5.0 0.00 0.02 0.00 33 1009.1
20260504211504 73 126 0.0 6.0 0.00 0.02 0.00 33 1009.1
20260504211005 73 286 0.0 5.0 0.00 0.02 0.00 32 1009.2
20260504210514 73 287 3.0 3.0 0.00 0.02 0.00 33 1009.1
20260504210008 73 288 0.0 4.0 0.00 0.02 0.00 33 1009.1
20260504205510 73 281 0.0 3.0 0.00 0.02 0.00 33 1009.1
20260504205010 73 289 0.0 7.0 0.00 0.02 0.00 32 1009.1
20260504204507 73 249 7.0 7.0 0.00 0.02 0.00 33 1009.0
20260504204007 73 174 1.0 6.0 0.00 0.02 0.00 32 1009.1
20260504203508 73 249 0.0 7.0 0.00 0.02 0.00 32 1009.1
20260504203004 74 297 1.0 8.0 0.00 0.02 0.00 33 1009.1
20260504202510 74 288 2.0 9.0 0.00 0.02 0.00 33 1009.1
20260504202005 74 265 2.0 8.0 0.00 0.02 0.00 32 1009.2
20260504201507 73 294 5.0 5.0 0.00 0.02 0.00 33 1009.1
20260504201007 73 292 1.0 10.0 0.00 0.02 0.00 32 1009.2
20260504200507 73 249 0.0 9.0 0.00 0.02 0.00 32 1009.2
20260504200004 73 114 1.0 6.0 0.00 0.02 0.00 33 1009.3
20260504195510 74 306 0.0 7.0 0.00 0.02 0.00 33 1009.3
20260504195007 74 253 0.0 9.0 0.00 0.02 0.00 32 1009.4
20260504194504 73 151 0.0 2.0 0.00 0.02 0.00 34 1009.3
20260504194005 73 190 3.0 6.0 0.00 0.02 0.00 33 1009.4
20260504193514 73 271 2.0 10.0 0.00 0.02 0.00 33 1009.5
20260504193004 73 29 3.0 7.0 0.00 0.02 0.00 33 1009.5
20260504192504 73 288 3.0 5.0 0.00 0.02 0.00 34 1009.6
20260504192011 73 279 0.0 6.0 0.00 0.02 0.00 33 1009.6
20260504191510 73 276 6.0 6.0 0.00 0.02 0.00 33 1009.7
20260504191013 73 293 4.0 4.0 0.00 0.02 0.00 34 1009.8
20260504190505 72 182 1.0 8.0 0.00 0.02 0.00 34 1009.9
20260504190008 72 130 0.0 6.0 0.00 0.02 0.00 33 1009.9
20260504185505 72 249 1.0 5.0 0.00 0.02 0.00 33 1009.9
20260504185004 72 291 3.0 8.0 0.00 0.02 0.00 33 1010.1
20260504184504 72 245 1.0 7.0 0.00 0.02 0.00 34 1010.1
20260504184008 72 291 2.0 6.0 0.00 0.02 0.00 34 1010.1
20260504183504 72 234 3.0 9.0 0.00 0.02 0.00 33 1010.2
20260504183004 72 293 1.0 7.0 0.00 0.02 0.00 34 1010.3
20260504182513 72 293 0.0 9.0 0.00 0.02 0.00 34 1010.3
20260504182004 72 314 0.0 6.0 0.00 0.02 0.00 34 1010.5
20260504181504 72 201 0.0 11.0 0.00 0.02 0.00 34 1010.4
20260504181004 72 179 1.0 3.0 0.00 0.02 0.00 34 1010.6
20260504180507 71 291 0.0 11.0 0.00 0.02 0.00 34 1010.7
20260504180004 71 87 1.0 9.0 0.00 0.02 0.00 35 1010.8
20260504175507 71 164 0.0 8.0 0.00 0.02 0.00 35 1010.7
20260504175004 71 267 2.0 9.0 0.00 0.02 0.00 35 1010.9
20260504174504 71 299 1.0 5.0 0.00 0.02 0.00 34 1011.0
20260504174004 71 304 5.0 11.0 0.00 0.02 0.00 34 1011.0
20260504173511 71 237 1.0 5.0 0.00 0.02 0.00 37 1011.0
20260504173004 70 280 1.0 8.0 0.00 0.02 0.00 35 1011.1
20260504172508 70 108 1.0 6.0 0.00 0.02 0.00 36 1011.0
20260504172007 70 229 2.0 10.0 0.00 0.02 0.00 36 1011.1
20260504171507 70 205 1.0 7.0 0.00 0.02 0.00 35 1011.2
20260504171004 69 277 0.0 7.0 0.00 0.02 0.00 36 1011.3
20260504170510 69 201 1.0 8.0 0.00 0.02 0.00 36 1011.4
20260504151004 66 293 0.0 5.0 0.00 0.01 0.00 39 1012.7
20260504150504 66 280 1.0 3.0 0.00 0.01 0.00 42 1012.6
20260504141007 63 288 1.0 7.0 0.00 0.01 0.00 47 1012.9
20260504140504 63 286 1.0 5.0 0.00 0.01 0.00 47 1013.0